Date String (YYYY-MM-DD hh:mm:ss) UTC,Instrument flags,Ambient pressure (hPa),Sample flow (lpm),Bypass flow (lpm),Sample temperature (°C),Ambient temperature (°C),ASC tube jacket temperature (°C),LED temperature (°C),Box temperature (°C),Sample RH (%),Span deviation,Mass concentration (μg/m³),Mass concentration (μg/m³),Mass concentration (μg/m³)
DateTimeUTC,F1_M11,P_M11,Q1_M11,Q2_M11,T1_M11,T2_M11,T3_M11,T4_M11,T5_M11,U1_M11,ZSPAN_M11,X0_M11,X2_M11,X1_M11
2021-10-28 08:00:00,,0827.9,5.01,0.00,25.8,24.9,00.0,34.8,27.6,11.3,0000.0,0009.41,0001.77,0001.15
2021-10-28 08:01:00,,0827.9,4.99,0.00,25.8,24.9,00.0,34.8,27.6,11.3,0000.0,0009.30,0001.80,0001.16
2021-10-28 08:02:00,,0828.0,4.99,0.00,25.8,24.9,00.0,34.8,27.6,11.3,0000.0,0008.76,0001.77,0001.15
2021-10-28 08:03:00,,0828.1,5.02,0.00,25.8,24.9,00.0,34.8,27.6,11.4,0000.0,0008.88,0001.75,0001.16
2021-10-28 08:04:00,,0828.1,4.99,0.00,25.8,24.9,00.0,34.8,27.6,11.6,0000.0,0008.29,0001.76,0001.19
2021-10-28 08:05:00,,0828.1,5.01,0.00,25.8,24.9,00.0,34.8,27.6,11.6,0000.0,0007.84,0001.80,0001.21
2021-10-28 08:06:00,,0828.1,5.00,0.00,25.8,24.8,00.0,34.8,27.6,11.6,0000.0,0007.38,0001.87,0001.22
2021-10-28 08:07:00,,0828.2,5.00,0.00,25.7,24.8,00.0,34.8,27.5,11.7,0000.0,0006.44,0001.92,0001.23
2021-10-28 08:08:00,,0828.1,5.00,0.00,25.7,24.8,00.0,34.8,27.5,11.7,0000.0,0006.05,0001.90,0001.24
2021-10-28 08:09:00,,0828.1,5.01,0.00,25.7,24.8,00.0,34.8,27.5,11.8,0000.0,0005.09,0001.91,0001.27
2021-10-28 08:10:00,,0828.1,4.99,0.00,25.7,24.8,00.0,34.8,27.5,11.8,0000.0,0005.28,0001.96,0001.30
2021-10-28 08:11:00,,0828.1,4.99,0.00,25.7,24.8,00.0,34.8,27.5,11.8,0000.0,0005.72,0002.01,0001.34
2021-10-28 08:12:00,,0828.1,5.01,0.00,25.7,24.8,00.0,34.8,27.5,12.0,0000.0,0006.77,0002.07,0001.41
2021-10-28 08:13:00,,0828.2,5.00,0.00,25.7,24.7,00.0,34.8,27.4,12.0,0000.0,0007.14,0002.13,0001.46
2021-10-28 08:14:00,,0828.2,5.00,0.00,25.6,24.7,00.0,34.8,27.4,12.1,0000.0,0007.21,0002.23,0001.52
2021-10-28 08:15:00,,0828.2,5.00,0.00,25.6,24.7,00.0,34.7,27.4,12.2,0000.0,0007.30,0002.29,0001.56
2021-10-28 08:16:00,,0828.3,5.02,0.00,25.6,24.6,00.0,34.7,27.4,12.3,0000.0,0007.45,0002.36,0001.61
2021-10-28 08:17:00,,0828.3,5.00,0.00,25.5,24.6,00.0,34.7,27.3,12.2,0000.0,0007.64,0002.38,0001.66
2021-10-28 08:18:00,,0828.4,5.00,0.00,25.5,24.5,00.0,34.7,27.3,12.3,0000.0,0007.96,0002.44,0001.72
2021-10-28 08:19:00,,0828.4,4.99,0.00,25.5,24.5,00.0,34.7,27.3,12.5,0000.0,0008.07,0002.50,0001.77
2021-10-28 08:20:00,,0828.5,4.99,0.00,25.5,24.4,00.0,34.7,27.2,12.6,0000.0,0008.38,0002.60,0001.81
2021-10-28 08:21:00,,0828.5,4.99,0.00,25.4,24.3,00.0,34.6,27.2,13.0,0000.0,0008.45,0002.66,0001.85
2021-10-28 08:22:00,,0828.8,5.00,0.00,25.4,24.3,00.0,34.6,27.2,13.2,0000.0,0008.43,0002.68,0001.86
2021-10-28 08:23:00,,0828.9,5.01,0.00,25.4,24.4,00.0,34.6,27.2,13.2,0000.0,0007.58,0002.69,0001.88
2021-10-28 08:24:00,,0828.4,4.99,0.00,25.4,24.4,00.0,34.6,27.2,13.5,0000.0,0007.79,0002.71,0001.90
2021-10-28 08:25:00,,0828.5,4.99,0.00,25.4,24.4,00.0,34.5,27.2,13.6,0000.0,0007.84,0002.68,0001.91
2021-10-28 08:26:00,,0828.5,5.00,0.00,25.3,24.4,00.0,34.5,27.1,13.9,0000.0,0007.70,0002.64,0001.92
2021-10-28 08:27:00,,0828.4,5.00,0.00,25.3,24.4,00.0,34.5,27.1,13.8,0000.0,0007.80,0002.61,0001.94
2021-10-28 08:28:00,,0828.5,5.01,0.00,25.3,24.4,00.0,34.5,27.1,13.7,0000.0,0007.78,0002.61,0001.95
2021-10-28 08:29:00,,0828.5,5.00,0.00,25.3,24.4,00.0,34.5,27.1,13.6,0000.0,0007.55,0002.64,0001.96
2021-10-28 08:30:00,,0828.5,5.00,0.00,25.3,24.4,00.0,34.5,27.1,13.6,0000.0,0007.53,0002.64,0001.96
2021-10-28 08:31:00,,0828.9,5.01,0.00,25.3,24.4,00.0,34.4,27.1,14.0,0000.0,0007.28,0002.61,0001.96
2021-10-28 08:32:00,,0828.9,5.00,0.00,25.2,24.4,00.0,34.4,27.1,14.3,0000.0,0007.03,0002.55,0001.95
2021-10-28 08:33:00,,0828.7,5.00,0.00,25.2,24.3,00.0,34.4,27.0,14.3,0000.0,0006.73,0002.55,0001.96
2021-10-28 08:34:00,,0828.6,5.00,0.00,25.2,24.3,00.0,34.4,27.0,14.4,0000.0,0006.82,0002.53,0001.95
2021-10-28 08:35:00,,0829.1,4.99,0.00,25.2,24.3,00.0,34.4,27.0,14.3,0000.0,0006.17,0002.47,0001.94
2021-10-28 08:36:00,,0829.2,5.01,0.00,25.2,24.3,00.0,34.4,27.0,14.4,0000.0,0005.65,0002.50,0001.93
2021-10-28 08:37:00,,0828.8,5.02,0.00,25.2,24.4,00.0,34.4,27.0,14.5,0000.0,0005.67,0002.50,0001.92
2021-10-28 08:38:00,,0828.5,4.99,0.00,25.2,24.4,00.0,34.3,27.0,14.5,0000.0,0005.36,0002.52,0001.90
2021-10-28 08:39:00,,0828.7,5.01,0.00,25.2,24.3,00.0,34.3,27.0,14.3,0000.0,0005.15,0002.55,0001.88
2021-10-28 08:40:00,,0828.7,5.00,0.00,25.2,24.3,00.0,34.3,27.0,14.1,0000.0,0006.76,0002.51,0001.87
2021-10-28 08:41:00,,0828.9,5.01,0.00,25.2,24.4,00.0,34.3,27.0,13.6,0000.0,0007.49,0002.46,0001.87
2021-10-28 08:42:00,,0829.0,5.00,0.00,25.2,24.4,00.0,34.3,27.0,13.6,0000.0,0007.46,0002.45,0001.86
2021-10-28 08:43:00,,0828.9,5.00,0.00,25.2,24.4,00.0,34.3,27.0,14.1,0000.0,0007.49,0002.47,0001.86
2021-10-28 08:44:00,,0828.7,5.01,0.00,25.3,24.4,00.0,34.3,27.1,14.2,0000.0,0007.54,0002.50,0001.87
2021-10-28 08:45:00,,0828.9,4.99,0.00,25.2,24.4,00.0,34.3,27.1,14.2,0000.0,0007.46,0002.53,0001.88
2021-10-28 08:46:00,,0828.8,4.99,0.00,25.2,24.4,00.0,34.3,27.1,14.6,0000.0,0007.50,0002.58,0001.88
2021-10-28 08:47:00,,0828.8,4.99,0.00,25.2,24.4,00.0,34.3,27.0,13.6,0000.0,0007.37,0002.51,0001.88
2021-10-28 08:48:00,,0828.8,5.02,0.00,25.2,24.4,00.0,34.3,27.0,13.7,0000.0,0007.41,0002.51,0001.88
2021-10-28 08:49:00,,0829.0,4.98,0.00,25.2,24.4,00.0,34.3,27.0,14.0,0000.0,0007.51,0002.50,0001.88
2021-10-28 08:50:00,,0828.7,5.01,0.00,25.2,24.4,00.0,34.3,27.0,14.2,0000.0,0007.54,0002.50,0001.87
2021-10-28 08:51:00,,0828.7,4.99,0.00,25.2,24.4,00.0,34.3,27.0,14.3,0000.0,0005.88,0002.50,0001.85
2021-10-28 08:52:00,,0828.7,5.00,0.00,25.2,24.4,00.0,34.3,27.1,13.9,0000.0,0005.86,0002.53,0001.85
2021-10-28 08:53:00,,0828.9,5.00,0.00,25.2,24.4,00.0,34.3,27.1,14.2,0000.0,0005.76,0002.50,0001.84
2021-10-28 08:54:00,,0828.8,5.01,0.00,25.2,24.4,00.0,34.3,27.0,14.8,0000.0,0005.64,0002.48,0001.82
2021-10-28 08:55:00,,0828.7,4.99,0.00,25.2,24.4,00.0,34.3,27.1,15.0,0000.0,0005.63,0002.47,0001.81
2021-10-28 08:56:00,,0828.7,5.00,0.00,25.3,24.4,00.0,34.3,27.1,14.8,0000.0,0005.75,0002.51,0001.81
2021-10-28 08:57:00,,0828.8,5.00,0.00,25.2,24.4,00.0,34.3,27.1,14.4,0000.0,0005.71,0002.50,0001.82
2021-10-28 08:58:00,,0829.4,5.01,0.00,25.2,24.4,00.0,34.3,27.1,14.3,0000.0,0006.02,0002.58,0001.84
2021-10-28 08:59:00,,0829.3,5.00,0.00,25.2,24.4,00.0,34.3,27.1,14.1,0000.0,0006.12,0002.66,0001.86
